Time,TemperatureF,DewpointF,PressureIn,WindDirection,WindDirectionDegrees,WindSpeedMPH,WindSpeedGustMPH,Humidity,HourlyPrecipIn,Conditions,Clouds,dailyrainin,SoftwareType,DateUTC
2013-03-17 00:01:00,47.5,45.0,29.95,SE,143,0.0,0.0,90,0.00,,,0.00,weatherlink.com 1.10,2013-03-17 07:01:00,
2013-03-17 00:31:00,47.0,45.0,29.95,East,84,0.0,0.0,91,0.00,,,0.00,weatherlink.com 1.10,2013-03-17 07:31:00,
2013-03-17 00:46:00,46.8,44.0,29.97,ESE,120,0.0,0.0,91,0.00,,,0.00,weatherlink.com 1.10,2013-03-17 07:46:00,
2013-03-17 01:01:00,46.4,44.0,29.97,ESE,121,0.0,0.0,91,0.00,,,0.00,weatherlink.com 1.10,2013-03-17 08:01:00,
2013-03-17 01:16:00,46.1,44.0,29.97,SE,125,0.0,0.0,91,0.00,,,0.00,weatherlink.com 1.10,2013-03-17 08:16:00,
2013-03-17 01:46:00,45.9,44.0,29.96,ESE,121,0.0,0.0,92,0.00,,,0.00,weatherlink.com 1.10,2013-03-17 08:46:00,
2013-03-17 02:01:00,45.3,43.0,29.96,ESE,123,0.0,0.0,92,0.00,,,0.00,weatherlink.com 1.10,2013-03-17 09:01:00,
2013-03-17 02:16:00,45.0,43.0,29.96,ESE,123,0.0,0.0,92,0.00,,,0.00,weatherlink.com 1.10,2013-03-17 09:16:00,
2013-03-17 02:31:00,44.9,43.0,29.96,ESE,121,0.0,0.0,92,0.00,,,0.00,weatherlink.com 1.10,2013-03-17 09:31:00,
2013-03-17 02:46:00,44.4,42.0,29.96,ESE,122,0.0,0.0,92,0.00,,,0.00,weatherlink.com 1.10,2013-03-17 09:46:00,
2013-03-17 03:01:00,44.7,43.0,29.95,ESE,120,1.0,2.0,93,0.00,,,0.00,weatherlink.com 1.10,2013-03-17 10:01:00,
2013-03-17 03:16:00,44.6,43.0,29.95,SE,137,0.0,0.0,93,0.00,,,0.00,weatherlink.com 1.10,2013-03-17 10:16:00,
2013-03-17 03:31:00,44.2,42.0,29.95,ESE,105,0.0,0.0,93,0.00,,,0.00,weatherlink.com 1.10,2013-03-17 10:31:00,
2013-03-17 03:46:00,44.3,42.0,29.95,ESE,113,0.0,0.0,93,0.00,,,0.00,weatherlink.com 1.10,2013-03-17 10:46:00,
2013-03-17 04:01:00,43.8,42.0,29.95,ESE,114,0.0,0.0,93,0.00,,,0.00,weatherlink.com 1.10,2013-03-17 11:01:00,
2013-03-17 04:16:00,43.7,42.0,29.96,ESE,113,0.0,0.0,94,0.00,,,0.00,weatherlink.com 1.10,2013-03-17 11:16:00,
2013-03-17 04:31:00,43.8,42.0,29.95,WSW,239,0.0,1.0,94,0.00,,,0.00,weatherlink.com 1.10,2013-03-17 11:31:00,
2013-03-17 04:46:00,43.8,42.0,29.95,WSW,238,0.0,0.0,94,0.00,,,0.00,weatherlink.com 1.10,2013-03-17 11:46:00,
2013-03-17 05:01:00,43.6,42.0,29.95,SE,138,0.0,0.0,94,0.00,,,0.00,weatherlink.com 1.10,2013-03-17 12:01:00,
2013-03-17 05:16:00,43.4,42.0,29.96,SE,138,0.0,0.0,94,0.00,,,0.00,weatherlink.com 1.10,2013-03-17 12:16:00,
2013-03-17 05:31:00,43.2,42.0,29.96,East,88,0.0,0.0,94,0.00,,,0.00,weatherlink.com 1.10,2013-03-17 12:31:00,
2013-03-17 05:46:00,43.1,42.0,29.96,NE,49,0.0,0.0,94,0.00,,,0.00,weatherlink.com 1.10,2013-03-17 12:46:00,
2013-03-17 06:01:00,43.0,41.0,29.96,SSE,160,0.0,0.0,94,0.00,,,0.00,weatherlink.com 1.10,2013-03-17 13:01:00,
2013-03-17 06:16:00,42.9,41.0,29.97,NE,37,0.0,1.0,94,0.00,,,0.00,weatherlink.com 1.10,2013-03-17 13:16:00,
2013-03-17 06:31:00,42.8,41.0,29.97,NE,55,0.0,0.0,94,0.00,,,0.00,weatherlink.com 1.10,2013-03-17 13:31:00,
2013-03-17 06:46:00,42.8,42.0,29.97,SSW,204,0.0,1.0,95,0.00,,,0.00,weatherlink.com 1.10,2013-03-17 13:46:00,
2013-03-17 07:01:00,42.9,42.0,29.97,West,276,0.0,0.0,95,0.00,,,0.00,weatherlink.com 1.10,2013-03-17 14:01:00,
2013-03-17 07:16:00,43.1,42.0,29.98,West,260,0.0,3.0,95,0.00,,,0.00,weatherlink.com 1.10,2013-03-17 14:16:00,
2013-03-17 07:31:00,43.5,42.0,29.99,ENE,77,0.0,1.0,95,0.00,,,0.00,weatherlink.com 1.10,2013-03-17 14:31:00,
2013-03-17 07:46:00,44.5,43.0,29.98,East,82,0.0,0.0,95,0.00,,,0.00,weatherlink.com 1.10,2013-03-17 14:46:00,
2013-03-17 08:02:00,46.0,45.0,29.98,East,82,0.0,0.0,95,0.00,,,0.00,weatherlink.com 1.10,2013-03-17 15:02:00,
2013-03-17 08:17:00,47.9,47.0,29.98,ESE,112,0.0,0.0,95,0.00,,,0.00,weatherlink.com 1.10,2013-03-17 15:17:00,
2013-03-17 08:32:00,49.5,48.0,29.98,West,277,0.0,0.0,95,0.00,,,0.00,weatherlink.com 1.10,2013-03-17 15:32:00,
2013-03-17 08:47:00,51.1,50.0,29.99,WSW,255,0.0,0.0,94,0.00,,,0.00,weatherlink.com 1.10,2013-03-17 15:47:00,
2013-03-17 09:02:00,55.1,53.0,29.99,SW,233,0.0,1.0,93,0.00,,,0.00,weatherlink.com 1.10,2013-03-17 16:02:00,
2013-03-17 09:17:00,58.4,53.0,29.99,WNW,290,0.0,0.0,83,0.00,,,0.00,weatherlink.com 1.10,2013-03-17 16:17:00,
2013-03-17 09:32:00,59.1,53.0,29.99,NNE,22,1.0,2.0,80,0.00,,,0.00,weatherlink.com 1.10,2013-03-17 16:32:00,
2013-03-17 09:47:00,59.9,52.0,30.00,West,271,2.0,8.0,74,0.00,,,0.00,weatherlink.com 1.10,2013-03-17 16:47:00,
2013-03-17 10:02:00,59.9,52.0,30.00,WNW,290,1.0,6.0,75,0.00,,,0.00,weatherlink.com 1.10,2013-03-17 17:02:00,
2013-03-17 10:17:00,59.5,51.0,30.00,West,270,4.0,6.0,74,0.00,,,0.00,weatherlink.com 1.10,2013-03-17 17:17:00,
2013-03-17 10:32:00,59.3,51.0,30.00,WNW,293,3.0,6.0,75,0.00,,,0.00,weatherlink.com 1.10,2013-03-17 17:32:00,
2013-03-17 10:47:00,59.6,52.0,30.01,WNW,290,2.0,8.0,75,0.00,,,0.00,weatherlink.com 1.10,2013-03-17 17:47:00,
2013-03-17 11:02:00,60.4,51.0,30.00,West,281,4.0,7.0,72,0.00,,,0.00,weatherlink.com 1.10,2013-03-17 18:02:00,
2013-03-17 11:17:00,60.2,52.0,30.00,WNW,284,4.0,10.0,74,0.00,,,0.00,weatherlink.com 1.10,2013-03-17 18:17:00,
2013-03-17 11:32:00,61.0,52.0,30.00,WNW,302,2.0,8.0,71,0.00,,,0.00,weatherlink.com 1.10,2013-03-17 18:32:00,
2013-03-17 11:47:00,62.2,51.0,30.00,WSW,255,3.0,8.0,66,0.00,,,0.00,weatherlink.com 1.10,2013-03-17 18:47:00,
2013-03-17 12:02:00,63.1,51.0,29.99,North,354,3.0,10.0,64,0.00,,,0.00,weatherlink.com 1.10,2013-03-17 19:02:00,
2013-03-17 12:17:00,64.7,50.0,29.99,WNW,293,3.0,9.0,59,0.00,,,0.00,weatherlink.com 1.10,2013-03-17 19:17:00,
2013-03-17 12:32:00,65.3,49.0,29.99,West,278,5.0,8.0,55,0.00,,,0.00,weatherlink.com 1.10,2013-03-17 19:32:00,
2013-03-17 12:47:00,66.5,49.0,29.98,WNW,293,4.0,8.0,54,0.00,,,0.00,weatherlink.com 1.10,2013-03-17 19:47:00,
2013-03-17 13:02:00,67.0,49.0,29.97,WNW,283,8.0,8.0,53,0.00,,,0.00,weatherlink.com 1.10,2013-03-17 20:02:00,
2013-03-17 13:17:00,68.4,49.0,29.97,West,274,3.0,6.0,50,0.00,,,0.00,weatherlink.com 1.10,2013-03-17 20:17:00,
2013-03-17 13:33:00,69.5,49.0,29.96,West,266,3.0,9.0,49,0.00,,,0.00,weatherlink.com 1.10,2013-03-17 20:33:00,
2013-03-17 13:48:00,69.6,49.0,29.95,West,266,1.0,8.0,49,0.00,,,0.00,weatherlink.com 1.10,2013-03-17 20:48:00,
2013-03-17 14:03:00,69.2,50.0,29.95,WSW,257,4.0,7.0,51,0.00,,,0.00,weatherlink.com 1.10,2013-03-17 21:03:00,
2013-03-17 14:18:00,69.5,50.0,29.94,West,276,2.0,10.0,51,0.00,,,0.00,weatherlink.com 1.10,2013-03-17 21:18:00,
2013-03-17 14:33:00,69.2,53.0,29.93,West,272,8.0,10.0,56,0.00,,,0.00,weatherlink.com 1.10,2013-03-17 21:33:00,
2013-03-17 14:48:00,69.1,52.0,29.93,WSW,256,8.0,12.0,55,0.00,,,0.00,weatherlink.com 1.10,2013-03-17 21:48:00,
2013-03-17 15:03:00,69.1,53.0,29.93,WNW,288,6.0,11.0,56,0.00,,,0.00,weatherlink.com 1.10,2013-03-17 22:03:00,
2013-03-17 15:18:00,69.0,50.0,29.93,West,278,2.0,10.0,51,0.00,,,0.00,weatherlink.com 1.10,2013-03-17 22:18:00,
2013-03-17 15:33:00,70.5,49.0,29.93,West,260,3.0,8.0,47,0.00,,,0.00,weatherlink.com 1.10,2013-03-17 22:33:00,
2013-03-17 15:48:00,70.6,46.0,29.93,West,259,5.0,11.0,42,0.00,,,0.00,weatherlink.com 1.10,2013-03-17 22:48:00,
2013-03-17 16:03:00,70.6,46.0,29.93,NNW,333,4.0,10.0,41,0.00,,,0.00,weatherlink.com 1.10,2013-03-17 23:03:00,
2013-03-17 16:18:00,70.3,48.0,29.92,WNW,302,3.0,9.0,45,0.00,,,0.00,weatherlink.com 1.10,2013-03-17 23:18:00,
2013-03-17 16:33:00,70.2,48.0,29.92,WNW,294,2.0,9.0,45,0.00,,,0.00,weatherlink.com 1.10,2013-03-17 23:33:00,
2013-03-17 16:48:00,68.9,49.0,29.93,WSW,256,5.0,12.0,49,0.00,,,0.00,weatherlink.com 1.10,2013-03-17 23:48:00,
2013-03-17 17:03:00,67.6,47.0,29.93,West,270,5.0,10.0,47,0.00,,,0.00,weatherlink.com 1.10,2013-03-18 00:03:00,
2013-03-17 17:18:00,67.0,48.0,29.92,WNW,285,5.0,8.0,51,0.00,,,0.00,weatherlink.com 1.10,2013-03-18 00:18:00,
2013-03-17 17:33:00,66.4,49.0,29.92,West,269,2.0,7.0,54,0.00,,,0.00,weatherlink.com 1.10,2013-03-18 00:33:00,
2013-03-17 17:48:00,65.4,49.0,29.93,SW,226,4.0,8.0,56,0.00,,,0.00,weatherlink.com 1.10,2013-03-18 00:48:00,
2013-03-17 18:03:00,64.1,50.0,29.93,WNW,296,2.0,8.0,60,0.00,,,0.00,weatherlink.com 1.10,2013-03-18 01:03:00,
2013-03-17 18:18:00,63.3,48.0,29.94,West,269,3.0,7.0,58,0.00,,,0.00,weatherlink.com 1.10,2013-03-18 01:18:00,
2013-03-17 18:34:00,60.8,49.0,29.94,NW,304,4.0,7.0,65,0.00,,,0.00,weatherlink.com 1.10,2013-03-18 01:34:00,
2013-03-17 18:48:00,59.7,49.0,29.95,West,262,3.0,6.0,69,0.00,,,0.00,weatherlink.com 1.10,2013-03-18 01:48:00,
2013-03-17 19:03:00,58.6,50.0,29.95,SSE,167,2.0,4.0,73,0.00,,,0.00,weatherlink.com 1.10,2013-03-18 02:03:00,
2013-03-17 19:18:00,58.0,50.0,29.94,WSW,257,1.0,1.0,75,0.00,,,0.00,weatherlink.com 1.10,2013-03-18 02:18:00,
2013-03-17 19:33:00,57.4,50.0,29.94,West,277,0.0,1.0,76,0.00,,,0.00,weatherlink.com 1.10,2013-03-18 02:33:00,
2013-03-17 19:48:00,56.5,49.0,29.94,SE,143,0.0,0.0,76,0.00,,,0.00,weatherlink.com 1.10,2013-03-18 02:48:00,
2013-03-17 20:03:00,55.4,49.0,29.95,SE,143,0.0,0.0,78,0.00,,,0.00,weatherlink.com 1.10,2013-03-18 03:03:00,
2013-03-17 20:18:00,55.1,49.0,29.94,SE,142,0.0,0.0,79,0.00,,,0.00,weatherlink.com 1.10,2013-03-18 03:18:00,
2013-03-17 20:33:00,54.3,48.0,29.95,SE,141,0.0,0.0,79,0.00,,,0.00,weatherlink.com 1.10,2013-03-18 03:33:00,
2013-03-17 20:48:00,53.7,48.0,29.95,SE,141,0.0,0.0,81,0.00,,,0.00,weatherlink.com 1.10,2013-03-18 03:48:00,
2013-03-17 21:03:00,53.7,49.0,29.95,West,261,0.0,0.0,83,0.00,,,0.00,weatherlink.com 1.10,2013-03-18 04:03:00,
2013-03-17 21:18:00,53.6,49.0,29.95,West,276,0.0,3.0,85,0.00,,,0.00,weatherlink.com 1.10,2013-03-18 04:18:00,
2013-03-17 21:33:00,53.0,49.0,29.95,SE,127,0.0,1.0,86,0.00,,,0.00,weatherlink.com 1.10,2013-03-18 04:33:00,
2013-03-17 21:48:00,52.2,48.0,29.96,SE,127,0.0,0.0,86,0.00,,,0.00,weatherlink.com 1.10,2013-03-18 04:48:00,
2013-03-17 22:03:00,51.3,47.0,29.96,SE,127,0.0,1.0,85,0.00,,,0.00,weatherlink.com 1.10,2013-03-18 05:03:00,
2013-03-17 22:18:00,50.9,47.0,29.97,SE,127,0.0,0.0,86,0.00,,,0.00,weatherlink.com 1.10,2013-03-18 05:18:00,
2013-03-17 22:33:00,50.7,47.0,29.97,SSE,158,0.0,0.0,87,0.00,,,0.00,weatherlink.com 1.10,2013-03-18 05:33:00,
2013-03-17 22:48:00,50.8,47.0,29.98,SW,231,0.0,0.0,88,0.00,,,0.00,weatherlink.com 1.10,2013-03-18 05:48:00,
2013-03-17 23:03:00,49.7,46.0,29.99,SW,231,0.0,0.0,88,0.00,,,0.00,weatherlink.com 1.10,2013-03-18 06:03:00,
2013-03-17 23:18:00,48.7,46.0,29.99,South,181,0.0,1.0,89,0.00,,,0.00,weatherlink.com 1.10,2013-03-18 06:18:00,
2013-03-17 23:33:00,48.5,46.0,29.99,South,181,0.0,0.0,89,0.00,,,0.00,weatherlink.com 1.10,2013-03-18 06:33:00,
2013-03-17 23:48:00,47.6,45.0,29.99,South,181,0.0,0.0,89,0.00,,,0.00,weatherlink.com 1.10,2013-03-18 06:48:00,